TimeAST,TemperatureF,Dew PointF,Humidity,Sea Level PressureIn,VisibilityMPH,Wind Direction,Wind SpeedMPH,Gust SpeedMPH,PrecipitationIn,Events,Conditions,WindDirDegrees,DateUTC
12:55 AM,70.2,39.9,33,29.90,6.2,NNW,4.6,-,N/A,,Clear,340,2013-03-29 21:55:00
1:55 AM,69.8,41.7,36,29.89,6.2,North,3.5,-,N/A,,Clear,360,2013-03-29 22:55:00
2:55 AM,68.9,43.9,40,29.89,6.2,Calm,Calm,-,N/A,,Clear,0,2013-03-29 23:55:00
3:55 AM,65.8,41.9,42,29.90,6.2,Calm,Calm,-,N/A,,Clear,0,2013-03-30 00:55:00
4:55 AM,65.1,45.5,49,29.92,6.2,WNW,6.9,-,N/A,,Clear,300,2013-03-30 01:55:00
5:55 AM,65.3,47.7,53,29.94,6.2,WNW,3.5,-,N/A,,Clear,290,2013-03-30 02:55:00
6:55 AM,68.7,48.6,49,29.96,5.0,NNW,6.9,-,N/A,,Haze,340,2013-03-30 03:55:00
7:55 AM,77.4,44.4,31,29.96,5.0,North,4.6,-,N/A,,Haze,350,2013-03-30 04:55:00
8:55 AM,83.5,37.6,19,29.98,6.2,North,9.2,-,N/A,,Partly Cloudy,360,2013-03-30 05:55:00
9:55 AM,86.5,35.6,16,29.97,6.2,NNE,5.8,-,N/A,,Partly Cloudy,20,2013-03-30 06:55:00
10:55 AM,89.1,35.2,15,29.95,6.2,North,5.8,-,N/A,,Scattered Clouds,350,2013-03-30 07:55:00
11:55 AM,90.9,34.9,14,29.93,6.2,Variable,4.6,-,N/A,,Mostly Cloudy,0,2013-03-30 08:55:00
12:55 PM,92.7,33.6,12,29.91,6.2,Variable,5.8,-,N/A,,Scattered Clouds,0,2013-03-30 09:55:00
1:55 PM,93.2,32.7,12,29.88,6.2,North,4.6,-,N/A,,Partly Cloudy,10,2013-03-30 10:55:00
2:55 PM,93.4,33.8,12,29.87,6.2,Calm,Calm,-,N/A,,Clear,0,2013-03-30 11:55:00
3:55 PM,93.7,32.7,12,29.86,6.2,North,5.8,-,N/A,,Clear,350,2013-03-30 12:55:00
4:55 PM,91.2,41.2,17,29.88,6.2,East,11.5,18.4,N/A,,Clear,100,2013-03-30 13:55:00
5:55 PM,87.3,39.4,18,29.89,6.2,East,5.8,-,N/A,,Clear,80,2013-03-30 14:55:00
6:16 PM,86.0,39.2,19,29.89,6.2,ENE,6.9,-,N/A,Rain,Light Rain,70,2013-03-30 15:16:00
6:33 PM,84.2,39.2,20,29.90,6.2,East,5.8,-,N/A,,Clear,80,2013-03-30 15:33:00
6:55 PM,83.8,39.6,21,29.90,6.2,East,3.5,-,0.00,,Clear,100,2013-03-30 15:55:00
7:55 PM,81.9,38.8,22,29.91,6.2,Calm,Calm,-,N/A,,Clear,0,2013-03-30 16:55:00
8:55 PM,79.2,44.2,29,29.92,6.2,South,3.5,-,N/A,,Clear,180,2013-03-30 17:55:00
9:55 PM,77.0,44.8,32,29.91,6.2,Calm,Calm,-,N/A,,Clear,0,2013-03-30 18:55:00
10:55 PM,74.1,43.2,33,29.91,6.2,Calm,Calm,-,N/A,,Clear,0,2013-03-30 19:55:00
11:55 PM,74.5,41.4,30,29.89,6.2,North,3.5,-,N/A,,Clear,360,2013-03-30 20:55:00